TimeCST,TemperatureF,Dew PointF,Humidity,Sea Level PressureIn,VisibilityMPH,Wind Direction,Wind SpeedMPH,Gust SpeedMPH,PrecipitationIn,Events,Conditions,WindDirDegrees,DateUTC
12:15 AM,24.8,21.7,88,30.25,10.0,NNE,8.1,-,N/A,,Overcast,30,2013-02-08 06:15:00
12:35 AM,24.4,21.6,89,30.26,10.0,North,8.1,-,N/A,,Overcast,360,2013-02-08 06:35:00
12:55 AM,24.1,21.4,89,30.27,10.0,North,6.9,-,N/A,,Overcast,360,2013-02-08 06:55:00
1:15 AM,23.5,21.2,91,30.27,10.0,North,8.1,-,N/A,,Overcast,350,2013-02-08 07:15:00
1:35 AM,23.2,21.2,92,30.27,10.0,NE,3.5,-,N/A,,Overcast,50,2013-02-08 07:35:00
2:15 AM,22.6,21.0,93,30.28,10.0,East,5.8,-,N/A,,Overcast,80,2013-02-08 08:15:00
2:35 AM,22.5,20.8,93,30.29,10.0,NE,5.8,-,N/A,,Overcast,40,2013-02-08 08:35:00
2:55 AM,22.1,20.7,94,30.29,10.0,NNE,5.8,-,N/A,,Overcast,20,2013-02-08 08:55:00
3:15 AM,21.9,20.3,93,30.29,10.0,Calm,Calm,-,N/A,,Overcast,0,2013-02-08 09:15:00
3:35 AM,21.9,20.3,93,30.28,10.0,North,3.5,-,N/A,,Overcast,360,2013-02-08 09:35:00
3:55 AM,21.7,20.3,94,30.28,10.0,Calm,Calm,-,N/A,,Overcast,0,2013-02-08 09:55:00
4:15 AM,21.7,20.5,95,30.28,10.0,East,3.5,-,N/A,,Overcast,100,2013-02-08 10:15:00
4:35 AM,21.9,20.3,93,30.29,10.0,Calm,Calm,-,N/A,,Overcast,0,2013-02-08 10:35:00
4:55 AM,21.9,20.3,93,30.29,10.0,East,4.6,-,N/A,,Overcast,100,2013-02-08 10:55:00
5:15 AM,21.4,19.9,94,30.29,10.0,Calm,Calm,-,N/A,,Overcast,0,2013-02-08 11:15:00
5:35 AM,21.4,20.1,95,30.29,10.0,Calm,Calm,-,N/A,,Overcast,0,2013-02-08 11:35:00
5:55 AM,21.6,20.1,94,30.29,10.0,Calm,Calm,-,N/A,,Overcast,0,2013-02-08 11:55:00
6:15 AM,21.6,20.3,95,30.29,10.0,Calm,Calm,-,N/A,,Overcast,0,2013-02-08 12:15:00
6:35 AM,21.6,20.3,95,30.30,7.0,Calm,Calm,-,N/A,,Overcast,0,2013-02-08 12:35:00
6:55 AM,21.2,20.1,96,30.31,10.0,South,3.5,-,N/A,,Overcast,170,2013-02-08 12:55:00
7:15 AM,21.6,20.3,95,30.31,7.0,Calm,Calm,-,N/A,,Overcast,0,2013-02-08 13:15:00
7:35 AM,21.6,20.3,95,30.31,7.0,Calm,Calm,-,N/A,,Overcast,0,2013-02-08 13:35:00
7:55 AM,21.6,20.3,95,30.31,7.0,SSE,5.8,-,N/A,,Overcast,150,2013-02-08 13:55:00
8:15 AM,21.2,20.1,96,30.31,7.0,Calm,Calm,-,N/A,,Overcast,0,2013-02-08 14:15:00
8:35 AM,21.6,20.3,95,30.31,7.0,East,5.8,-,N/A,,Overcast,100,2013-02-08 14:35:00
8:55 AM,21.2,20.1,96,30.31,7.0,Calm,Calm,-,N/A,,Overcast,0,2013-02-08 14:55:00
9:15 AM,22.1,20.8,95,30.32,7.0,SE,6.9,-,N/A,,Overcast,140,2013-02-08 15:15:00
9:35 AM,21.9,20.5,94,30.32,7.0,South,5.8,-,N/A,,Overcast,170,2013-02-08 15:35:00
9:55 AM,22.1,20.3,93,30.32,10.0,SSE,5.8,-,N/A,,Overcast,150,2013-02-08 15:55:00
10:15 AM,22.8,21.0,93,30.32,10.0,SSE,8.1,-,N/A,,Overcast,150,2013-02-08 16:15:00
10:35 AM,23.9,21.2,89,30.32,10.0,South,6.9,-,N/A,,Overcast,170,2013-02-08 16:35:00
10:55 AM,24.4,20.8,86,30.32,10.0,SE,9.2,-,N/A,,Overcast,140,2013-02-08 16:55:00
11:15 AM,25.3,20.5,82,30.33,10.0,SSE,8.1,-,N/A,,Overcast,160,2013-02-08 17:15:00
11:35 AM,25.7,20.7,81,30.32,10.0,South,8.1,-,N/A,,Overcast,170,2013-02-08 17:35:00
11:55 AM,27.3,21.0,77,30.31,10.0,South,11.5,-,N/A,,Overcast,180,2013-02-08 17:55:00
12:15 PM,28.2,20.8,74,30.31,10.0,South,12.7,-,N/A,,Overcast,170,2013-02-08 18:15:00
12:35 PM,28.8,21.0,73,30.30,10.0,South,12.7,-,N/A,,Overcast,170,2013-02-08 18:35:00
12:55 PM,29.5,20.8,70,30.29,10.0,South,8.1,-,N/A,,Mostly Cloudy,170,2013-02-08 18:55:00
1:15 PM,31.1,21.0,66,30.28,10.0,SSE,11.5,-,N/A,,Mostly Cloudy,150,2013-02-08 19:15:00
1:35 PM,32.0,21.4,65,30.27,10.0,South,15.0,-,N/A,,Scattered Clouds,190,2013-02-08 19:35:00
1:55 PM,32.9,21.4,63,30.26,10.0,South,12.7,16.1,N/A,,Scattered Clouds,170,2013-02-08 19:55:00
2:15 PM,32.9,21.4,63,30.24,10.0,SSE,11.5,-,N/A,,Clear,150,2013-02-08 20:15:00
2:35 PM,33.4,21.6,62,30.22,10.0,SSE,15.0,-,N/A,,Clear,150,2013-02-08 20:35:00
2:55 PM,33.4,21.4,61,30.21,10.0,SE,12.7,-,N/A,,Clear,140,2013-02-08 20:55:00
3:15 PM,34.0,21.4,60,30.21,10.0,SSE,15.0,-,N/A,,Clear,160,2013-02-08 21:15:00
3:35 PM,33.8,21.6,61,30.21,10.0,SE,11.5,-,N/A,,Clear,140,2013-02-08 21:35:00
3:55 PM,33.8,21.6,61,30.19,10.0,SE,12.7,17.3,N/A,,Clear,140,2013-02-08 21:55:00
4:15 PM,32.9,22.1,65,30.20,10.0,SSE,12.7,18.4,N/A,,Clear,150,2013-02-08 22:15:00
4:35 PM,32.0,22.1,67,30.19,10.0,SSE,11.5,-,N/A,,Clear,150,2013-02-08 22:35:00
4:55 PM,31.5,22.3,69,30.19,10.0,SSE,12.7,-,N/A,,Clear,150,2013-02-08 22:55:00
5:15 PM,30.2,22.1,72,30.18,10.0,SSE,15.0,-,N/A,,Clear,150,2013-02-08 23:15:00
5:35 PM,29.1,22.5,76,30.18,10.0,SE,10.4,-,N/A,,Clear,140,2013-02-08 23:35:00
5:55 PM,28.2,22.5,79,30.19,10.0,SSE,10.4,-,N/A,,Clear,150,2013-02-08 23:55:00
6:15 PM,27.5,22.5,81,30.19,10.0,SE,12.7,-,N/A,,Clear,140,2013-02-09 00:15:00
6:35 PM,26.8,22.3,83,30.19,10.0,SE,9.2,-,N/A,,Clear,140,2013-02-09 00:35:00
6:55 PM,26.4,22.5,85,30.18,10.0,SSE,9.2,-,N/A,,Clear,150,2013-02-09 00:55:00
7:15 PM,26.1,22.6,87,30.17,10.0,SSE,9.2,-,N/A,,Scattered Clouds,150,2013-02-09 01:15:00
7:35 PM,26.2,23.0,88,30.18,10.0,SSE,15.0,18.4,N/A,,Overcast,160,2013-02-09 01:35:00
7:55 PM,26.1,23.0,88,30.17,10.0,SSE,13.8,17.3,N/A,,Overcast,150,2013-02-09 01:55:00
8:15 PM,26.1,23.0,88,30.16,10.0,SSE,15.0,-,N/A,,Overcast,150,2013-02-09 02:15:00
8:35 PM,26.4,23.5,89,30.16,10.0,SSE,12.7,19.6,N/A,,Overcast,150,2013-02-09 02:35:00
8:55 PM,26.6,23.7,89,30.16,10.0,SSE,13.8,-,N/A,,Overcast,160,2013-02-09 02:55:00
9:15 PM,26.6,23.9,90,30.17,10.0,SSE,13.8,-,N/A,,Overcast,160,2013-02-09 03:15:00
9:35 PM,26.6,23.7,89,30.16,10.0,SSE,12.7,21.9,N/A,,Overcast,150,2013-02-09 03:35:00
9:55 PM,26.6,23.7,89,30.16,10.0,SSE,11.5,19.6,N/A,,Overcast,160,2013-02-09 03:55:00
10:15 PM,27.0,23.9,88,30.16,10.0,SSE,10.4,-,N/A,,Overcast,150,2013-02-09 04:15:00
10:35 PM,27.1,24.3,89,30.17,10.0,SSE,10.4,18.4,N/A,,Overcast,150,2013-02-09 04:35:00
10:55 PM,27.3,24.4,89,30.16,10.0,SSE,11.5,-,N/A,,Overcast,160,2013-02-09 04:55:00
11:15 PM,27.5,24.4,88,30.16,10.0,SSE,11.5,-,N/A,,Overcast,160,2013-02-09 05:15:00
11:35 PM,27.5,24.8,90,30.15,10.0,SSE,13.8,-,N/A,,Overcast,160,2013-02-09 05:35:00
11:55 PM,27.3,24.6,90,30.15,7.0,SSE,10.4,-,N/A,,Overcast,150,2013-02-09 05:55:00